TimeEDT,TemperatureF,Dew PointF,Humidity,Sea Level PressureIn,VisibilityMPH,Wind Direction,Wind SpeedMPH,Gust SpeedMPH,PrecipitationIn,Events,Conditions,WindDirDegrees,DateUTC
12:53 AM,73.0,66.0,79,30.00,8.0,North,5.8,-,N/A,,Clear,350,2013-08-05 04:53:00
1:53 AM,72.0,66.0,81,29.99,8.0,Calm,Calm,-,N/A,,Clear,0,2013-08-05 05:53:00
2:53 AM,70.0,64.9,84,29.97,8.0,North,3.5,-,N/A,,Clear,360,2013-08-05 06:53:00
3:53 AM,70.0,64.9,84,29.97,8.0,North,3.5,-,N/A,,Clear,350,2013-08-05 07:53:00
4:53 AM,70.0,64.0,81,29.97,8.0,North,4.6,-,N/A,,Clear,360,2013-08-05 08:53:00
5:53 AM,70.0,64.0,81,29.98,8.0,North,3.5,-,N/A,,Clear,360,2013-08-05 09:53:00
6:53 AM,70.0,64.0,81,29.98,7.0,Calm,Calm,-,N/A,,Clear,0,2013-08-05 10:53:00
7:53 AM,72.0,66.0,81,30.00,7.0,North,3.5,-,N/A,,Clear,10,2013-08-05 11:53:00
8:53 AM,73.9,68.0,82,30.01,7.0,NNE,4.6,-,N/A,,Clear,30,2013-08-05 12:53:00
9:17 AM,77.0,69.8,78,30.07,7.0,Calm,Calm,-,N/A,,Mostly Cloudy,0,2013-08-05 13:17:00
9:53 AM,77.0,69.1,76,30.02,7.0,Variable,3.5,-,N/A,,Overcast,0,2013-08-05 13:53:00
10:53 AM,77.0,70.0,79,30.04,7.0,Variable,5.8,-,N/A,,Overcast,0,2013-08-05 14:53:00
11:53 AM,80.1,70.0,71,30.03,7.0,Variable,6.9,-,N/A,,Overcast,0,2013-08-05 15:53:00
12:53 PM,82.0,71.1,69,30.01,7.0,SE,3.5,-,N/A,,Mostly Cloudy,140,2013-08-05 16:53:00
1:53 PM,84.0,71.1,65,29.99,7.0,Calm,Calm,-,N/A,,Mostly Cloudy,0,2013-08-05 17:53:00
2:00 PM,84.2,69.8,62,30.04,7.0,Calm,Calm,-,N/A,,Partly Cloudy,0,2013-08-05 18:00:00
2:53 PM,84.9,66.9,55,29.99,8.0,NNW,3.5,-,N/A,,Partly Cloudy,330,2013-08-05 18:53:00
3:53 PM,87.1,69.1,55,29.96,8.0,Calm,Calm,-,N/A,,Mostly Cloudy,0,2013-08-05 19:53:00
4:53 PM,87.1,68.0,53,29.96,8.0,Calm,Calm,-,N/A,,Clear,0,2013-08-05 20:53:00
5:53 PM,84.9,64.9,51,29.95,9.0,NW,6.9,-,N/A,,Clear,310,2013-08-05 21:53:00
6:53 PM,84.9,66.0,53,29.95,9.0,WNW,4.6,-,N/A,,Overcast,300,2013-08-05 22:53:00
7:53 PM,82.0,64.9,56,29.96,9.0,NW,6.9,-,N/A,,Clear,310,2013-08-05 23:53:00
8:53 PM,79.0,66.0,64,29.97,10.0,NNW,3.5,-,N/A,,Partly Cloudy,340,2013-08-06 00:53:00
9:53 PM,78.1,66.9,68,29.97,10.0,SSE,3.5,-,N/A,,Mostly Cloudy,160,2013-08-06 01:53:00
10:53 PM,75.0,69.1,82,29.98,10.0,Calm,Calm,-,N/A,,Clear,0,2013-08-06 02:53:00
11:53 PM,75.9,68.0,76,29.97,10.0,Calm,Calm,-,N/A,,Scattered Clouds,0,2013-08-06 03:53:00